{"data":{"norad_id":53419,"intl_designator":"2022-097AH","name":"STARLINK-4476","alt_names":[],"object_type":"PAYLOAD","status":"ACTIVE","operator":null,"country":"US","launch_date":"2022-08-10","launch_site_code":"AFETR","launch_vehicle":null,"mission":null,"orbit_class":"UNKNOWN","rcs_meters":null,"size_class":null,"mass_kg":null,"dimensions":null,"purposes":["comms"],"wikipedia_slug":null,"has_3d_model":false,"image_url":null,"decayed_at":null,"tle_current":{"epoch":"2026-09-19T17:56:06.180000Z","epoch_age_seconds":140490,"freshness":"FRESH","line1":"1 53419U 22097AH  26262.74729375  .00000618  00000+0  29443-4 0  9994","line2":"2 53419  53.1603 311.5738 0001233  75.3779 284.7360 15.34392662228077","mean_motion":15.34392662,"eccentricity":0.0001233,"inclination_deg":53.1603,"raan_deg":311.5738,"arg_perigee_deg":75.3779,"mean_anomaly_deg":284.736,"bstar":2.9443e-5,"rev_number":22807,"period_min":93.848206893993,"perigee_km":461.88157208563,"apogee_km":463.56852866725,"semimajor_km":6840.8620503764,"source":"CELESTRAK","updated_at":"2026-09-20T09:00:40.229480Z"}}}